Weather History for New Orleans Lakefront, LA

Change the Weather History Date:

Monday, January 6, 2014

  Actual Average Record
Temperature  
Mean Temperature 34 °F 53 °F  
Max Temperature 40 °F 62 °F 79 °F (1989)
Min Temperature 27 °F 45 °F 23 °F (1969)
Degree Days  
Heating Degree Days 31 12  
Month to date heating degree days 113 72  
Since 1 July heating degree days 646 553  
Cooling Degree Days 0 1  
Month to date cooling degree days 0 6  
Year to date cooling degree days 0 6  
Moisture  
Dew Point 19 °F    
Average Humidity 56    
Maximum Humidity 76    
Minimum Humidity 35    
Precipitation  
Precipitation 0.00 in 0.16 in 3.98 in (1964)
Month to date precipitation 0.47 0.98  
Year to date precipitation 0.47 0.98  
Snow  
Snow 0.00 in - - ()
Month to date snowfall 0.0  
Since 1 July snowfall 0.0  
Snow Depth 0.00 in    
Sea Level Pressure  
Sea Level Pressure 30.45 in    
Wind  
Wind Speed 17 mph (NNW)    
Max Wind Speed 28 mph    
Max Gust Speed 39 mph    
Visibility 10 miles    
Events      
T = Trace of Precipitation, MM = Missing Value Source: NWS Daily Summary

Daily Weather History Graph

Daily Weather History Graph

Search for Another Location

Airport:

Trip Planner

Search our weather history database for the weather conditions in past years. The results will help you decide how hot, cold, wet, or windy it might be!

Date:

Astronomy

Jan. 06, 2014 Rise Set
Actual Time 6:57 AM CST 5:15 PM CST
Civil Twilight 6:30 AM CST 5:41 PM CST
Nautical Twilight 6:01 AM CST 6:11 PM CST
Astronomical Twilight 5:32 AM CST 6:40 PM CST
Moon 10:39 AM CST (1/6) 11:18 PM CST (1/6)
Length of Visible Light 11h 10m
Length of Day
10h 18m
Waxing Crescent, 35% of the Moon is Illuminated
Jan 6
Waxing Crescent
Jan 7
First Quarter
Jan 15
Full
Jan 23
Last Quarter
Jan 30
New

Hourly Weather History & Observations

Time (CST) Temp. Windchill Dew Point Humidity Pressure Visibility Wind Dir Wind Speed Gust Speed Precip Events Conditions
12:53 AM 39.9 °F 28.4 °F 33.1 °F 77% 30.16 in 10.0 mi NNW 29.9 mph - N/A   Overcast
1:53 AM 37.9 °F 25.7 °F 30.9 °F 76% 30.21 in 10.0 mi North 29.9 mph 38.0 mph N/A   Overcast
2:53 AM 36.0 °F 22.8 °F 28.9 °F 76% 30.25 in 10.0 mi NNW 31.1 mph 40.3 mph N/A   Overcast
3:53 AM 36.0 °F 23.0 °F 28.0 °F 73% 30.27 in 10.0 mi NNW 29.9 mph 36.8 mph N/A   Overcast
4:53 AM 34.0 °F 20.3 °F 26.1 °F 73% 30.32 in 10.0 mi North 29.9 mph 39.1 mph N/A   Overcast
5:19 AM 33.1 °F 18.9 °F 25.0 °F 72% 30.35 in 10.0 mi North 31.1 mph 40.3 mph N/A   Partly Cloudy
5:53 AM 33.1 °F 19.6 °F 25.0 °F 72% 30.34 in 10.0 mi North 27.6 mph 38.0 mph N/A   Clear
6:53 AM 33.1 °F 20.9 °F 24.1 °F 70% 30.38 in 10.0 mi North 21.9 mph 31.1 mph N/A   Clear
7:53 AM 33.1 °F 19.6 °F 21.9 °F 64% 30.43 in 10.0 mi North 27.6 mph 40.3 mph N/A   Partly Cloudy
8:26 AM 32.0 °F 19.2 °F 23.0 °F 69% 30.48 in 10.0 mi NNW 23.0 mph 32.2 mph N/A   Mostly Cloudy
8:51 AM 32.0 °F 19.8 °F 23.0 °F 69% 30.48 in 10.0 mi North 20.7 mph 26.5 mph N/A   Partly Cloudy
8:53 AM 32.0 °F 19.2 °F 21.9 °F 66% 30.46 in 10.0 mi NNW 23.0 mph - N/A   Partly Cloudy
9:53 AM 35.1 °F 23.5 °F 21.9 °F 59% 30.51 in 10.0 mi North 21.9 mph 29.9 mph N/A   Clear
10:53 AM 34.0 °F 22.1 °F 18.0 °F 52% 30.50 in 10.0 mi NNW 21.9 mph 29.9 mph N/A   Clear
11:53 AM 35.1 °F 23.0 °F 17.1 °F 48% 30.49 in 10.0 mi NNW 24.2 mph 28.8 mph N/A   Clear
12:53 PM 36.0 °F 25.3 °F 16.0 °F 44% 30.48 in 10.0 mi NNW 19.6 mph - N/A   Clear
1:53 PM 37.9 °F 27.3 °F 17.1 °F 43% 30.47 in 10.0 mi NNW 21.9 mph - N/A   Clear
2:53 PM 37.0 °F 26.4 °F 15.1 °F 41% 30.47 in 10.0 mi NNW 20.7 mph - N/A   Clear
3:53 PM 36.0 °F 25.3 °F 15.1 °F 43% 30.50 in 10.0 mi NNW 19.6 mph 25.3 mph N/A   Clear
4:53 PM 35.1 °F 23.8 °F 12.9 °F 40% 30.51 in 10.0 mi NNW 20.7 mph - N/A   Clear
5:53 PM 33.1 °F 20.9 °F 12.0 °F 42% 30.53 in 10.0 mi NNW 21.9 mph - N/A   Clear
6:53 PM 32.0 °F 20.1 °F 10.9 °F 42% 30.57 in 10.0 mi NNW 19.6 mph - N/A   Clear
7:53 PM 30.9 °F 17.5 °F 10.9 °F 43% 30.59 in 10.0 mi NNW 24.2 mph - N/A   Clear
8:53 PM 30.0 °F 17.5 °F 10.0 °F 43% 30.60 in 10.0 mi NNW 19.6 mph - N/A   Clear
9:53 PM 30.0 °F 19.1 °F 10.0 °F 43% 30.61 in 10.0 mi NNW 15.0 mph 23.0 mph N/A   Clear
10:53 PM 28.9 °F 16.5 °F 9.0 °F 43% 30.61 in 10.0 mi NNW 18.4 mph 24.2 mph N/A   Clear
11:53 PM 28.9 °F 17.3 °F 9.0 °F 43% 30.61 in 10.0 mi NNW 16.1 mph - N/A   Clear